[[{"header":{"parameterUnit":"m.s-1","parameterCategory":1,"la1":30.2991,"la2":30.254,"lo1":-89.0895,"lo2":-89.0444,"dy":0.0017,"dx":0.0017,"nx":28,"ny":28,"refTime":"2023-09-06T21:00:00:Z","depth":0,"parameterNumber":2,"parameterNumberName":"U-component_of_WINDS"},"data":[0,0,0,0,0,0,0,0,0,0,0,0,0,0,0,0,0,0,0,0,0,0,0,0,0,0,0,0,0,0,0,0,0,0,0,0,0,0,0,0,0,0,0,0,0,0,0,0,0,0,0,0,0,0,0,0,0,0,2.4165,2.4167,0,2.4312,2.4313,2.4315,2.4305,2.4303,2.4301,2.4299,2.4458,2.4464,2.447,0,0,0,0,0,0,0,0,0,0,0,0,0,2.3888,2.3893,2.4165,2.4167,2.4169,2.4311,2.4313,2.4315,2.4306,2.4303,2.43,2.4298,2.4456,2.4463,2.4471,0,0,0,0,0,0,0,0,0,0,0,0,0,2.4019,2.3894,2.4165,2.4181,2.4184,2.4311,2.4313,2.4316,2.4306,2.4303,2.43,2.4297,2.4453,2.4462,2.4472,2.4595,0,0,2.45,2.4504,0,0,0,0,0,0,0,0,2.4011,2.4029,2.4177,2.418,2.4184,2.4287,2.4274,2.441,2.4307,2.426,2.4299,2.4295,2.4404,2.4417,2.4452,2.4602,2.4609,2.4501,2.4507,2.4511,2.4513,0,0,0,0,0,0,0,2.4002,2.4023,2.4223,2.4179,2.4183,2.4184,2.4199,2.4299,2.4349,2.4264,2.4263,2.428,2.4405,2.4443,2.4456,2.4611,2.4501,2.4509,2.4515,2.4519,2.4873,2.4876,0,0,0,0,0,0,2.3988,2.4015,2.4219,2.4228,2.4087,2.4192,2.4209,2.4257,2.4348,2.4358,2.4283,2.4279,2.4429,2.4445,2.4461,2.4613,2.4511,2.452,2.4525,2.4869,2.4874,2.4878,0,0,0,0,0,0,2.3982,2.4006,2.4213,2.4121,2.4148,2.42,2.4255,2.4262,2.4299,2.4362,2.4372,2.4312,2.4427,2.4448,2.4562,2.4618,2.4524,2.4532,2.4865,2.487,2.4876,2.4916,0,0,0,0,0,0,2.3974,2.4004,2.4049,2.4122,2.4153,2.4308,2.4258,2.4267,2.4314,2.4311,2.4392,2.4402,2.4426,2.4548,2.4571,2.4629,2.454,2.486,2.4867,2.4874,2.4909,2.4922,2.4933,0,0,0,0,0,2.3964,2.4056,2.4051,2.4076,2.4209,2.4311,2.4328,2.4351,2.4319,2.4366,2.4407,2.4399,2.4608,2.4559,2.4585,2.4647,2.4856,2.4865,2.4873,2.4904,2.4919,2.4932,0,0,0,0,0,0,2.3991,2.4066,2.4061,2.4179,2.4238,2.4309,2.4369,2.4366,2.4438,2.4433,2.4461,2.4479,2.4594,2.4632,2.4576,2.4773,2.4729,2.4743,2.4743,2.4758,2.4769,2.4758,2.4547,0,0,0,0,0,2.401,2.4083,2.4146,2.4244,2.4273,2.4316,2.4361,2.4374,2.4438,2.4463,2.4512,2.4577,2.4658,2.471,2.4787,2.4915,2.4934,2.4971,2.4983,2.4992,2.5004,2.5077,2.5094,2.4906,2.4906,2.4905,0,0,2.4051,2.4101,2.4146,2.425,2.4297,2.4376,2.4337,2.4421,2.4481,2.4477,2.4586,2.4625,2.47,2.4821,2.4877,2.4857,2.506,2.5003,2.501,2.5017,2.5087,2.5105,2.5121,2.4911,2.491,2.4909,0,0,2.4165,2.4209,2.4296,2.4344,2.4415,2.4444,2.4465,2.4536,2.4561,2.467,2.467,2.4743,2.488,2.4934,2.4979,2.5116,2.5113,2.5141,2.5201,2.5271,2.5286,2.53,2.535,2.5367,2.5152,2.5153,2.5153,0,2.4207,2.4322,2.4342,2.4426,2.4474,2.4472,2.4562,2.4609,2.4703,2.4737,2.4713,2.4886,2.4936,2.507,2.5104,2.514,2.5167,2.5131,2.5282,2.5296,2.5308,2.5357,2.5375,2.5155,2.5155,2.5155,2.5155,0,2.4371,2.4451,2.4513,2.4602,2.4656,2.4743,2.478,2.4833,2.4842,2.4874,2.4987,2.5047,2.5137,2.5171,2.5181,2.5308,2.5293,2.5275,2.5231,2.5329,2.5375,2.5393,2.516,2.5159,2.5158,2.5157,0,0,2.4505,2.4603,2.4626,2.4667,2.4747,2.4811,2.49,2.4985,2.5031,2.5097,2.5174,2.5291,2.5275,2.5326,2.5343,2.5405,2.5511,2.5379,2.5382,2.5402,2.5657,2.567,2.5691,2.5509,2.5513,2.5516,2.5651,0,2.4627,2.4781,2.4802,2.4939,2.5015,2.5016,2.5093,2.5153,2.5185,2.5257,2.5295,2.5377,2.5349,2.5381,2.5442,2.5485,2.5563,2.5475,2.5584,2.5587,2.5564,2.5715,2.5729,2.5853,2.5669,2.5672,2.5674,0,2.479,2.4858,2.5002,2.5073,2.5106,2.5174,2.5256,2.5323,2.5392,2.5412,2.547,2.5479,2.5575,2.5527,2.566,2.5601,2.5647,2.5675,2.5681,2.5692,2.5636,2.5731,2.5893,2.5912,2.5702,2.57,2.5698,0,2.4874,2.5002,2.5105,2.514,2.5225,2.5274,2.5312,2.5377,2.5428,2.5501,2.5534,2.5618,2.5664,2.573,2.5763,2.5725,2.5896,2.585,2.5917,2.5916,2.5953,2.595,2.6125,2.5982,2.5982,2.5981,2.5981,0,2.5009,2.5097,2.5144,2.5207,2.5307,2.5333,2.5433,2.547,2.5529,2.5602,2.5609,2.5678,2.5717,2.5793,2.582,2.5928,2.5949,2.597,2.5976,2.5969,2.5966,2.6,2.5992,2.5986,2.5985,2.5984,2.5983,0,2.5119,2.5154,2.5266,2.5337,2.5357,2.5428,2.5491,2.5554,2.5587,2.568,2.5703,2.5756,2.5846,2.5885,2.5997,2.6015,2.6139,2.6139,2.6114,2.6117,2.6182,2.6175,2.6385,2.6414,2.6251,2.6252,2.6254,0,2.5203,2.527,2.5349,2.5397,2.5436,2.5513,2.5565,2.5594,2.5648,2.5733,2.5787,2.5876,2.5949,2.6094,2.6144,2.623,2.6233,2.63,2.6246,2.6237,2.6235,2.623,2.6238,2.631,2.6312,2.6313,2.6314,0,2.5348,2.5362,2.5434,2.5513,2.5573,2.5638,2.5701,2.5741,2.5781,2.5842,2.5932,2.5989,2.6102,2.6192,2.6282,2.6325,2.6328,2.6331,2.6351,2.6345,2.6328,2.6339,2.6142,2.6326,2.6325,2.6324,2.6323,2.6323,2.5448,2.5509,2.5573,2.5654,2.5704,2.5763,2.5826,2.5867,2.5942,2.6034,2.6049,2.6146,2.6216,2.6336,2.6383,2.6462,2.6446,2.6475,2.6482,2.6489,2.6493,2.6316,2.6479,2.6478,2.6478,2.6478,2.6478,0,2.5594,2.5635,2.5709,2.5797,2.5861,2.5855,2.5926,2.5981,2.6065,2.6129,2.6201,2.6306,2.6394,2.6451,2.6541,2.6593,2.6597,2.6616,2.6612,2.6623,2.6502,2.6476,2.6611,2.6611,2.6611,2.6611,2.6611,2.6611,2.5677,2.578,2.5802,2.5931,2.5973,2.6066,2.6107,2.6163,2.6214,2.633,2.6402,2.6438,2.6501,2.6595,2.6676,2.6691,2.6724,2.6744,2.6759,2.6645,2.6631,2.6618,2.6593,2.6751,2.6751,2.6872,2.6873,2.6874]},{"header":{"parameterUnit":"m.s-1","parameterCategory":1,"la1":30.2991,"la2":30.254,"lo1":-89.0895,"lo2":-89.0444,"dy":0.0017,"dx":0.0017,"nx":28,"ny":28,"refTime":"2023-09-06T21:00:00:Z","depth":0,"parameterNumber":3,"parameterNumberName":"V-component_of_WINDS"},"data":[0,0,0,0,0,0,0,0,0,0,0,0,0,0,0,0,0,0,0,0,0,0,0,0,0,0,0,0,0,0,0,0,0,0,0,0,0,0,0,0,0,0,0,0,0,0,0,0,0,0,0,0,0,0,0,0,0,0,1.296,1.296,0,1.2948,1.2948,1.2948,1.2918,1.2917,1.2916,1.2916,1.2901,1.2901,1.2901,0,0,0,0,0,0,0,0,0,0,0,0,0,1.2949,1.295,1.296,1.296,1.2959,1.2948,1.2948,1.2948,1.2918,1.2917,1.2916,1.2915,1.29,1.2901,1.2901,0,0,0,0,0,0,0,0,0,0,0,0,0,1.2947,1.295,1.296,1.2943,1.2941,1.2948,1.2948,1.2948,1.2918,1.2917,1.2916,1.2915,1.29,1.2901,1.2901,1.2922,0,0,1.2902,1.2902,0,0,0,0,0,0,0,0,1.2948,1.2948,1.2946,1.2944,1.2942,1.2933,1.2939,1.2939,1.2918,1.2927,1.2916,1.2915,1.2912,1.2911,1.2911,1.2921,1.2921,1.2902,1.2902,1.2902,1.2902,0,0,0,0,0,0,0,1.2948,1.2948,1.2955,1.2946,1.2944,1.2934,1.2933,1.2939,1.2925,1.2926,1.2924,1.2923,1.2911,1.2911,1.2911,1.292,1.2902,1.2902,1.2902,1.2902,1.2942,1.2943,0,0,0,0,0,0,1.2951,1.2948,1.2955,1.2955,1.2943,1.2935,1.2934,1.2937,1.2925,1.2922,1.2924,1.2922,1.2911,1.291,1.291,1.293,1.2902,1.2902,1.2903,1.2941,1.2942,1.2943,0,0,0,0,0,0,1.2951,1.2952,1.2956,1.2951,1.2951,1.2936,1.2941,1.2938,1.2938,1.2923,1.292,1.2927,1.291,1.291,1.2918,1.2929,1.2903,1.2903,1.294,1.2941,1.2942,1.2973,0,0,0,0,0,0,1.2951,1.2952,1.2962,1.2951,1.2951,1.2966,1.2941,1.2938,1.2939,1.2936,1.2925,1.2922,1.2909,1.2918,1.2919,1.2929,1.2903,1.2939,1.294,1.2942,1.2971,1.2976,1.2979,0,0,0,0,0,1.295,1.2971,1.2962,1.2963,1.2963,1.2967,1.2967,1.2953,1.294,1.2948,1.2938,1.2923,1.2928,1.2919,1.292,1.2931,1.2938,1.294,1.2942,1.2969,1.2975,1.2979,0,0,0,0,0,0,1.2982,1.2969,1.296,1.2978,1.2974,1.2962,1.2972,1.2959,1.2958,1.2955,1.2936,1.2934,1.2944,1.2939,1.2929,1.2948,1.293,1.2933,1.2951,1.2956,1.296,1.296,1.2903,0,0,0,0,0,1.2992,1.2998,1.2986,1.3003,1.3001,1.2987,1.2988,1.2977,1.2972,1.297,1.2961,1.2955,1.2955,1.2955,1.2955,1.297,1.2966,1.2978,1.2982,1.2985,1.2987,1.299,1.2994,1.2949,1.2949,1.2949,0,0,1.3011,1.3004,1.3009,1.3009,1.3004,1.3008,1.2986,1.2992,1.2994,1.2971,1.2978,1.2971,1.2962,1.2974,1.2978,1.2969,1.2998,1.2988,1.299,1.299,1.2993,1.2997,1.3001,1.2951,1.295,1.295,0,0,1.3047,1.3044,1.3056,1.3052,1.3045,1.3035,1.3038,1.3028,1.3022,1.3029,1.301,1.3012,1.3013,1.3007,1.3004,1.3034,1.3019,1.3035,1.3055,1.3059,1.3062,1.3065,1.3073,1.3076,1.3036,1.3037,1.3037,0,1.3071,1.3078,1.3064,1.307,1.3069,1.3048,1.3058,1.3054,1.3048,1.3046,1.3036,1.3035,1.3029,1.3036,1.3043,1.3043,1.3043,1.3035,1.3063,1.3066,1.3069,1.3076,1.3079,1.3038,1.3038,1.3038,1.3038,0,1.3106,1.3111,1.3121,1.3115,1.3115,1.3124,1.3108,1.3109,1.3098,1.3088,1.3093,1.3084,1.308,1.3081,1.307,1.3086,1.308,1.3067,1.3049,1.3075,1.3081,1.3084,1.3041,1.304,1.304,1.3039,0,0,1.3163,1.3147,1.3151,1.3146,1.3136,1.3139,1.3145,1.3141,1.3141,1.3136,1.3138,1.3139,1.3126,1.3122,1.311,1.3114,1.3134,1.31,1.3099,1.3104,1.3147,1.3155,1.3159,1.3124,1.3125,1.3125,1.3146,0,1.3194,1.3205,1.319,1.3203,1.3205,1.3184,1.3189,1.3182,1.3172,1.3171,1.3159,1.3159,1.3144,1.3141,1.3144,1.3131,1.3142,1.313,1.3124,1.3124,1.3125,1.3162,1.3172,1.3192,1.3149,1.3149,1.315,0,1.3233,1.323,1.3243,1.3229,1.3229,1.3234,1.3227,1.3228,1.3218,1.321,1.3205,1.319,1.3192,1.3175,1.3176,1.3168,1.3164,1.3157,1.3158,1.3155,1.3137,1.3158,1.3199,1.3201,1.3154,1.3154,1.3153,0,1.3269,1.3268,1.3274,1.3272,1.3257,1.326,1.3253,1.3243,1.324,1.3234,1.3231,1.3225,1.3221,1.3216,1.3198,1.3189,1.32,1.3183,1.3191,1.3191,1.3193,1.3193,1.3231,1.3195,1.3194,1.3194,1.3194,0,1.3304,1.3312,1.329,1.3294,1.3301,1.3283,1.329,1.3281,1.3272,1.3271,1.3253,1.3253,1.3231,1.3227,1.3214,1.3214,1.3213,1.3205,1.3201,1.3206,1.3206,1.3202,1.3199,1.3195,1.3195,1.3195,1.3195,0,1.3345,1.3331,1.3336,1.3321,1.3317,1.3323,1.3308,1.331,1.3299,1.3298,1.3297,1.3279,1.3273,1.3256,1.3246,1.3237,1.3241,1.3234,1.3244,1.3241,1.3249,1.3248,1.3285,1.3288,1.3251,1.3252,1.3252,0,1.3367,1.3373,1.3358,1.3356,1.3351,1.335,1.3347,1.3329,1.3326,1.3313,1.3316,1.3309,1.3303,1.3295,1.3279,1.3271,1.3263,1.3276,1.3261,1.3265,1.326,1.3259,1.3258,1.3279,1.3279,1.328,1.328,0,1.3407,1.3399,1.3397,1.339,1.3387,1.3382,1.3374,1.3374,1.3354,1.3351,1.3346,1.3341,1.333,1.3323,1.3312,1.3302,1.3287,1.3285,1.3286,1.329,1.3294,1.3289,1.325,1.3284,1.3284,1.3283,1.3283,1.3283,1.3437,1.344,1.3429,1.3425,1.3418,1.3411,1.3411,1.3399,1.3395,1.3386,1.3375,1.337,1.3357,1.334,1.3332,1.3326,1.3318,1.332,1.3321,1.3321,1.3322,1.3297,1.3324,1.3324,1.3324,1.3324,1.3324,0,1.3474,1.3465,1.3463,1.3453,1.3449,1.3436,1.3427,1.3424,1.342,1.341,1.3404,1.3396,1.3388,1.3371,1.3361,1.336,1.3352,1.3357,1.3356,1.3354,1.3331,1.333,1.3364,1.3364,1.3364,1.3364,1.3364,1.3364,1.3492,1.3495,1.3486,1.3483,1.3474,1.347,1.3465,1.3458,1.3449,1.3442,1.3435,1.3425,1.3411,1.3399,1.339,1.3385,1.3381,1.3389,1.3381,1.336,1.3356,1.3352,1.3351,1.3388,1.3388,1.3404,1.3404,1.3404]}]]